RPA5800 KPWM-KLGA

Flight info

Callsign RPA5800
Flight time 0h 59m
Altitude 30000
Route HSKEL3 CAM ALB VADDR1
Aircraft E75L/M-SDE3GILORVW/S

Departure

Time 2026-04-22 14:56
Airport Portland International Jetport (KPWM)

Arrival

Time 2026-04-22 15:55
Airport LaGuardia Airport (KLGA)
Time Latitude Longitude Altitude Speed Heading
2026-04-22 14:35 43.64678 -70.31167 58 ft 0 kts 16°
2026-04-22 14:35 43.64679 -70.31167 58 ft 0 kts 16°
2026-04-22 14:47 43.64677 -70.31168 67 ft 1 kts 16°
2026-04-22 14:48 43.64660 -70.31175 56 ft 3 kts 16°
2026-04-22 14:48 43.64641 -70.31182 62 ft 2 kts 15°
2026-04-22 14:48 43.64622 -70.31186 64 ft 3 kts 354°
2026-04-22 14:48 43.64605 -70.31175 62 ft 3 kts 309°
2026-04-22 14:49 43.64599 -70.31153 63 ft 2 kts 276°
2026-04-22 14:49 43.64599 -70.31149 62 ft 0 kts 275°
2026-04-22 14:52 43.64599 -70.31153 63 ft 2 kts 275°
2026-04-22 14:52 43.64603 -70.31212 62 ft 10 kts 276°
2026-04-22 14:52 43.64612 -70.31338 74 ft 16 kts 277°
2026-04-22 14:53 43.64622 -70.31495 93 ft 18 kts 274°
2026-04-22 14:53 43.64637 -70.31697 95 ft 23 kts 276°
2026-04-22 14:53 43.64651 -70.31916 98 ft 23 kts 275°
2026-04-22 14:53 43.64666 -70.32135 100 ft 23 kts 275°
2026-04-22 14:54 43.64680 -70.32354 102 ft 23 kts 277°
2026-04-22 14:54 43.64692 -70.32524 104 ft 10 kts 272°
2026-04-22 14:54 43.64659 -70.32581 103 ft 9 kts 185°
2026-04-22 14:54 43.64601 -70.32587 104 ft 8 kts 156°
2026-04-22 14:55 43.64580 -70.32511 103 ft 11 kts 95°
2026-04-22 14:55 43.64553 -70.32118 100 ft 77 kts 95°
2026-04-22 14:55 43.64480 -70.31073 66 ft 139 kts 96°
2026-04-22 14:55 43.64386 -70.29667 524 ft 146 kts 104°
2026-04-22 14:56 43.64457 -70.28195 1065 ft 170 kts 71°
2026-04-22 14:56 43.65088 -70.26729 1626 ft 189 kts 63°
2026-04-22 14:56 43.65843 -70.24987 1593 ft 223 kts 63°
2026-04-22 14:56 43.66578 -70.23103 1653 ft 223 kts 67°
2026-04-22 14:57 43.67594 -70.21484 2190 ft 230 kts 31°
2026-04-22 14:57 43.69115 -70.20945 2989 ft 229 kts 354°
2026-04-22 14:57 43.70731 -70.21337 3575 ft 244 kts 341°
2026-04-22 14:57 43.72400 -70.22024 4209 ft 255 kts 329°
2026-04-22 14:58 43.73704 -70.23648 4839 ft 256 kts 297°
2026-04-22 14:58 43.74476 -70.25843 5696 ft 253 kts 288°
2026-04-22 14:58 43.75090 -70.28126 6481 ft 254 kts 283°
2026-04-22 14:58 43.75512 -70.30507 7203 ft 255 kts 280°
2026-04-22 14:59 43.75888 -70.32925 7823 ft 257 kts 280°
2026-04-22 14:59 43.76193 -70.35330 8417 ft 258 kts 274°
2026-04-22 14:59 43.76249 -70.37822 9015 ft 259 kts 270°
2026-04-22 14:59 43.76210 -70.40319 9610 ft 261 kts 270°
2026-04-22 15:00 43.76132 -70.42845 10139 ft 267 kts 269°
2026-04-22 15:00 43.75778 -70.45440 10293 ft 286 kts 254°
2026-04-22 15:00 43.75045 -70.48050 10679 ft 293 kts 251°
2026-04-22 15:00 43.74241 -70.50650 11180 ft 296 kts 250°
2026-04-22 15:01 43.73406 -70.53260 11707 ft 298 kts 250°
2026-04-22 15:01 43.72556 -70.55890 12240 ft 301 kts 250°
2026-04-22 15:01 43.71734 -70.58562 12799 ft 302 kts 253°
2026-04-22 15:01 43.71026 -70.61307 13379 ft 304 kts 255°
2026-04-22 15:02 43.70332 -70.64084 13987 ft 307 kts 255°
2026-04-22 15:02 43.69639 -70.66888 14548 ft 309 kts 255°
2026-04-22 15:02 43.68942 -70.69706 15162 ft 311 kts 256°
2026-04-22 15:02 43.68241 -70.72537 15780 ft 312 kts 256°
2026-04-22 15:03 43.67533 -70.75383 16277 ft 314 kts 256°
2026-04-22 15:03 43.66821 -70.78253 16363 ft 316 kts 256°
2026-04-22 15:03 43.66106 -70.81122 16483 ft 316 kts 256°
2026-04-22 15:03 43.65390 -70.83991 16621 ft 316 kts 256°
2026-04-22 15:04 43.64673 -70.86859 16711 ft 313 kts 256°
2026-04-22 15:04 43.63959 -70.89715 16751 ft 316 kts 256°
2026-04-22 15:04 43.63240 -70.92586 16884 ft 317 kts 256°
2026-04-22 15:04 43.62527 -70.95428 17021 ft 317 kts 256°
2026-04-22 15:05 43.61802 -70.98313 17148 ft 318 kts 256°
2026-04-22 15:05 43.61077 -71.01198 17271 ft 318 kts 256°
2026-04-22 15:05 43.60353 -71.04068 17571 ft 313 kts 256°
2026-04-22 15:05 43.59645 -71.06873 17974 ft 309 kts 257°
2026-04-22 15:06 43.59164 -71.08791 18157 ft 318 kts 257°
2026-04-22 15:06 43.58193 -71.12636 18947 ft 321 kts 257°
2026-04-22 15:06 43.57452 -71.15558 19575 ft 323 kts 257°
2026-04-22 15:06 43.56710 -71.18489 20197 ft 325 kts 257°
2026-04-22 15:07 43.55962 -71.21441 20816 ft 326 kts 257°
2026-04-22 15:07 43.55210 -71.24403 21415 ft 328 kts 257°
2026-04-22 15:07 43.54453 -71.27380 21996 ft 330 kts 257°
2026-04-22 15:07 43.53690 -71.30378 22602 ft 332 kts 257°
2026-04-22 15:08 43.52932 -71.33348 23206 ft 334 kts 257°
2026-04-22 15:08 43.52149 -71.36417 23821 ft 336 kts 257°
2026-04-22 15:08 43.51379 -71.39428 24347 ft 338 kts 257°
2026-04-22 15:08 43.50595 -71.42491 24868 ft 340 kts 257°
2026-04-22 15:09 43.49807 -71.45567 25394 ft 341 kts 257°
2026-04-22 15:09 43.49015 -71.48657 25884 ft 343 kts 257°
2026-04-22 15:09 43.48217 -71.51763 26352 ft 345 kts 257°
2026-04-22 15:09 43.47414 -71.54888 26741 ft 348 kts 257°
2026-04-22 15:10 43.46602 -71.58037 27142 ft 350 kts 257°
2026-04-22 15:10 43.45784 -71.61207 27571 ft 352 kts 258°
2026-04-22 15:10 43.44960 -71.64393 28001 ft 354 kts 258°
2026-04-22 15:10 43.44132 -71.67599 28411 ft 356 kts 258°
2026-04-22 15:11 43.43299 -71.70815 28795 ft 358 kts 258°
2026-04-22 15:11 43.42459 -71.74053 29169 ft 360 kts 258°
2026-04-22 15:11 43.41615 -71.77306 29543 ft 362 kts 258°
2026-04-22 15:11 43.40766 -71.80568 29834 ft 359 kts 258°
2026-04-22 15:12 43.39941 -71.83716 29899 ft 347 kts 258°
2026-04-22 15:12 43.39121 -71.86896 29970 ft 358 kts 258°
2026-04-22 15:12 43.37389 -71.93520 29996 ft 378 kts 257°
2026-04-22 15:13 43.35596 -72.00344 29948 ft 378 kts 257°
2026-04-22 15:13 43.33811 -72.07144 29967 ft 379 kts 257°
2026-04-22 15:14 43.32016 -72.13954 29970 ft 379 kts 257°
2026-04-22 15:14 43.30219 -72.20758 29958 ft 379 kts 257°
2026-04-22 15:15 43.28419 -72.27552 29950 ft 380 kts 257°
2026-04-22 15:15 43.26619 -72.34324 29954 ft 379 kts 257°
2026-04-22 15:16 43.24805 -72.41131 29946 ft 380 kts 257°
2026-04-22 15:16 43.22981 -72.47952 29935 ft 381 kts 257°
2026-04-22 15:17 43.22065 -72.51371 29804 ft 382 kts 257°
2026-04-22 15:17 43.21153 -72.54773 29646 ft 380 kts 257°
2026-04-22 15:17 43.20239 -72.58181 29399 ft 380 kts 257°
2026-04-22 15:17 43.19328 -72.61566 29102 ft 379 kts 257°
2026-04-22 15:18 43.18416 -72.64951 28822 ft 378 kts 257°
2026-04-22 15:18 43.17508 -72.68316 28530 ft 376 kts 257°
2026-04-22 15:18 43.16604 -72.71666 28264 ft 374 kts 257°
2026-04-22 15:18 43.15702 -72.75001 28037 ft 373 kts 256°
2026-04-22 15:19 43.14800 -72.78328 27909 ft 372 kts 256°
2026-04-22 15:19 43.13899 -72.81653 27770 ft 372 kts 256°
2026-04-22 15:19 43.12997 -72.84973 27641 ft 371 kts 256°
2026-04-22 15:19 43.12097 -72.88284 27489 ft 372 kts 256°
2026-04-22 15:20 43.11500 -72.90479 27405 ft 372 kts 256°
2026-04-22 15:20 43.10292 -72.94907 27246 ft 371 kts 256°
2026-04-22 15:20 43.09387 -72.98221 27099 ft 371 kts 256°
2026-04-22 15:20 43.08494 -73.01487 26975 ft 371 kts 256°
2026-04-22 15:21 43.07591 -73.04786 26844 ft 370 kts 256°
2026-04-22 15:21 43.06689 -73.08077 26722 ft 369 kts 256°
2026-04-22 15:21 43.05785 -73.11371 26610 ft 369 kts 256°
2026-04-22 15:21 43.04884 -73.14648 26494 ft 369 kts 256°
2026-04-22 15:22 43.03982 -73.17927 26301 ft 368 kts 256°
2026-04-22 15:22 43.03080 -73.21199 26070 ft 368 kts 256°
2026-04-22 15:22 43.02472 -73.23398 25930 ft 366 kts 256°
2026-04-22 15:22 43.01576 -73.26647 25727 ft 365 kts 256°
2026-04-22 15:23 43.00296 -73.30899 25451 ft 369 kts 250°
2026-04-22 15:23 42.99093 -73.34011 25239 ft 372 kts 248°
2026-04-22 15:23 42.97819 -73.37081 25055 ft 372 kts 246°
2026-04-22 15:23 42.96384 -73.40041 24860 ft 375 kts 242°
2026-04-22 15:24 42.94867 -73.42936 24679 ft 374 kts 241°
2026-04-22 15:24 42.93832 -73.44876 24552 ft 374 kts 241°
2026-04-22 15:24 42.92319 -73.47698 24367 ft 373 kts 241°
2026-04-22 15:24 42.90790 -73.50547 24187 ft 372 kts 241°
2026-04-22 15:25 42.89263 -73.53390 24005 ft 371 kts 240°
2026-04-22 15:25 42.87740 -73.56222 23828 ft 370 kts 240°
2026-04-22 15:25 42.86219 -73.59048 23636 ft 369 kts 240°
2026-04-22 15:25 42.84702 -73.61864 23424 ft 368 kts 240°
2026-04-22 15:26 42.83186 -73.64680 23185 ft 368 kts 240°
2026-04-22 15:26 42.81667 -73.67490 22961 ft 369 kts 240°
2026-04-22 15:26 42.80152 -73.70298 22742 ft 367 kts 240°
2026-04-22 15:26 42.78638 -73.73096 22528 ft 366 kts 240°
2026-04-22 15:27 42.77124 -73.75880 22306 ft 366 kts 238°
2026-04-22 15:27 42.75194 -73.78218 22083 ft 383 kts 217°
2026-04-22 15:27 42.72652 -73.79472 21870 ft 399 kts 195°
2026-04-22 15:27 42.69846 -73.79446 21683 ft 410 kts 177°
2026-04-22 15:28 42.67028 -73.78742 21483 ft 411 kts 174°
2026-04-22 15:28 42.64219 -73.78111 21290 ft 409 kts 176°
2026-04-22 15:28 42.61410 -73.77514 21094 ft 407 kts 176°
2026-04-22 15:28 42.58617 -73.76930 20902 ft 405 kts 176°
2026-04-22 15:29 42.55831 -73.76350 20709 ft 404 kts 176°
2026-04-22 15:29 42.53050 -73.75769 20495 ft 403 kts 176°
2026-04-22 15:29 42.50278 -73.75191 20307 ft 402 kts 176°
2026-04-22 15:30 42.44773 -73.74044 19882 ft 398 kts 176°
2026-04-22 15:30 42.42039 -73.73474 19697 ft 397 kts 176°
2026-04-22 15:30 42.39345 -73.72913 19478 ft 396 kts 176°
2026-04-22 15:30 42.36592 -73.72340 19235 ft 394 kts 175°
2026-04-22 15:31 42.33919 -73.71785 19007 ft 393 kts 176°
2026-04-22 15:31 42.31221 -73.71225 18757 ft 391 kts 175°
2026-04-22 15:31 42.28541 -73.70670 18500 ft 389 kts 175°
2026-04-22 15:31 42.25859 -73.70115 18184 ft 388 kts 175°
2026-04-22 15:32 42.23211 -73.69568 17891 ft 383 kts 175°
2026-04-22 15:32 42.20585 -73.69022 17579 ft 381 kts 175°
2026-04-22 15:32 42.17961 -73.68480 17303 ft 380 kts 175°
2026-04-22 15:32 42.15347 -73.67941 17031 ft 378 kts 175°
2026-04-22 15:33 42.12754 -73.67406 16744 ft 376 kts 175°
2026-04-22 15:33 42.10175 -73.66875 16466 ft 374 kts 175°
2026-04-22 15:33 42.07637 -73.66352 16203 ft 373 kts 175°
2026-04-22 15:33 42.05077 -73.65826 15919 ft 370 kts 175°
2026-04-22 15:34 42.02538 -73.65304 15645 ft 368 kts 175°
2026-04-22 15:34 42.00013 -73.64783 15352 ft 367 kts 175°
2026-04-22 15:34 41.97498 -73.64269 15008 ft 364 kts 175°
2026-04-22 15:34 41.95007 -73.63757 14662 ft 361 kts 175°
2026-04-22 15:35 41.92530 -73.63250 14335 ft 359 kts 175°
2026-04-22 15:35 41.90065 -73.62746 14004 ft 357 kts 175°
2026-04-22 15:35 41.87616 -73.62244 13631 ft 355 kts 175°
2026-04-22 15:35 41.85186 -73.61747 13259 ft 352 kts 175°
2026-04-22 15:36 41.82773 -73.61254 12898 ft 349 kts 175°
2026-04-22 15:36 41.80374 -73.60833 12634 ft 344 kts 183°
2026-04-22 15:36 41.78077 -73.61393 12368 ft 333 kts 207°
2026-04-22 15:36 41.76220 -73.63115 12118 ft 322 kts 229°
2026-04-22 15:37 41.74718 -73.65311 11880 ft 318 kts 233°
2026-04-22 15:37 41.73433 -73.67706 11641 ft 316 kts 240°
2026-04-22 15:37 41.72238 -73.70172 11404 ft 312 kts 240°
2026-04-22 15:37 41.71115 -73.72543 11150 ft 300 kts 241°
2026-04-22 15:38 41.70022 -73.74860 10890 ft 289 kts 241°
2026-04-22 15:38 41.67839 -73.79227 10360 ft 279 kts 227°
2026-04-22 15:38 41.66237 -73.80688 10113 ft 280 kts 212°
2026-04-22 15:39 41.64454 -73.81786 9853 ft 283 kts 206°
2026-04-22 15:39 41.62597 -73.82700 9593 ft 284 kts 203°
2026-04-22 15:39 41.60723 -73.83523 9330 ft 283 kts 201°
2026-04-22 15:39 41.58818 -73.84197 9067 ft 283 kts 196°
2026-04-22 15:40 41.56887 -73.84727 8806 ft 282 kts 195°
2026-04-22 15:40 41.54962 -73.85227 8548 ft 281 kts 194°
2026-04-22 15:40 41.53048 -73.85721 8283 ft 279 kts 194°
2026-04-22 15:40 41.51150 -73.86209 8102 ft 276 kts 194°
2026-04-22 15:41 41.49281 -73.86693 8031 ft 277 kts 194°
2026-04-22 15:41 41.47388 -73.87180 8008 ft 278 kts 194°
2026-04-22 15:41 41.45451 -73.87369 7774 ft 283 kts 176°
2026-04-22 15:41 41.43527 -73.86790 7538 ft 284 kts 165°
2026-04-22 15:42 41.41685 -73.85861 7297 ft 282 kts 160°
2026-04-22 15:42 41.39910 -73.84749 7037 ft 282 kts 153°
2026-04-22 15:42 41.38241 -73.83349 6810 ft 284 kts 150°
2026-04-22 15:42 41.36598 -73.81888 6595 ft 282 kts 149°
2026-04-22 15:43 41.34983 -73.80428 6339 ft 279 kts 149°
2026-04-22 15:43 41.33380 -73.78959 6099 ft 280 kts 149°
2026-04-22 15:43 41.31772 -73.77512 5844 ft 278 kts 148°
2026-04-22 15:43 41.30174 -73.76061 5601 ft 278 kts 148°
2026-04-22 15:44 41.28576 -73.74617 5351 ft 278 kts 149°
2026-04-22 15:44 41.26969 -73.73161 5096 ft 279 kts 148°
2026-04-22 15:44 41.25375 -73.71725 4851 ft 275 kts 149°
2026-04-22 15:44 41.23802 -73.70301 4597 ft 271 kts 149°
2026-04-22 15:45 41.22248 -73.68895 4335 ft 267 kts 150°
2026-04-22 15:45 41.20724 -73.67530 4076 ft 261 kts 149°
2026-04-22 15:45 41.19254 -73.66205 3820 ft 256 kts 149°
2026-04-22 15:45 41.17800 -73.64889 3555 ft 250 kts 150°
2026-04-22 15:46 41.16374 -73.63607 3282 ft 244 kts 150°
2026-04-22 15:46 41.14981 -73.62357 3097 ft 239 kts 150°
2026-04-22 15:46 41.13601 -73.61124 3039 ft 241 kts 153°
2026-04-22 15:46 41.12028 -73.60541 3017 ft 235 kts 183°
2026-04-22 15:47 41.10422 -73.60888 3009 ft 234 kts 195°
2026-04-22 15:47 41.08925 -73.61716 3011 ft 235 kts 211°
2026-04-22 15:47 41.07590 -73.62965 3011 ft 234 kts 213°
2026-04-22 15:47 41.06205 -73.64109 3002 ft 235 kts 209°
2026-04-22 15:48 41.04808 -73.65229 3006 ft 234 kts 211°
2026-04-22 15:48 41.03404 -73.66427 3027 ft 241 kts 211°
2026-04-22 15:48 41.01974 -73.67619 3019 ft 241 kts 211°
2026-04-22 15:48 41.00551 -73.68797 3022 ft 241 kts 211°
2026-04-22 15:49 40.99169 -73.69953 3028 ft 227 kts 211°
2026-04-22 15:49 40.97884 -73.71022 2995 ft 215 kts 211°
2026-04-22 15:49 40.96644 -73.72053 2969 ft 207 kts 211°
2026-04-22 15:49 40.95450 -73.73049 2960 ft 198 kts 211°
2026-04-22 15:50 40.94348 -73.73964 2970 ft 176 kts 211°
2026-04-22 15:50 40.93346 -73.74796 2985 ft 166 kts 211°
2026-04-22 15:50 40.92348 -73.75626 3012 ft 167 kts 211°
2026-04-22 15:50 40.91344 -73.76460 2937 ft 175 kts 211°
2026-04-22 15:51 40.90331 -73.77302 2734 ft 167 kts 210°
2026-04-22 15:51 40.89392 -73.78081 2557 ft 152 kts 209°
2026-04-22 15:51 40.88545 -73.78784 2358 ft 139 kts 208°
2026-04-22 15:51 40.87738 -73.79453 2170 ft 131 kts 208°
2026-04-22 15:52 40.86998 -73.80067 1976 ft 121 kts 207°
2026-04-22 15:52 40.86271 -73.80670 1858 ft 126 kts 206°
2026-04-22 15:52 40.85534 -73.81281 1706 ft 124 kts 207°
2026-04-22 15:52 40.84794 -73.81893 1533 ft 125 kts 207°
2026-04-22 15:53 40.84060 -73.82525 1414 ft 124 kts 211°
2026-04-22 15:53 40.83359 -73.83159 1230 ft 119 kts 203°
2026-04-22 15:53 40.82634 -73.83648 988 ft 122 kts 202°
2026-04-22 15:53 40.81925 -73.84302 865 ft 124 kts 213°
2026-04-22 15:54 40.81196 -73.84870 707 ft 120 kts 203°
2026-04-22 15:54 40.80485 -73.85461 507 ft 121 kts 210°
2026-04-22 15:54 40.79772 -73.86056 358 ft 126 kts 207°
2026-04-22 15:54 40.79002 -73.86692 200 ft 134 kts 207°
2026-04-22 15:55 40.78227 -73.87333 30 ft 124 kts 208°
2026-04-22 15:55 40.77604 -73.87848 22 ft 79 kts 211°
2026-04-22 15:55 40.77268 -73.88125 20 ft 38 kts 213°
2026-04-22 15:55 40.77110 -73.88247 22 ft 17 kts 189°
2026-04-22 15:56 40.77047 -73.88180 23 ft 4 kts 97°
2026-04-22 15:56 40.77069 -73.88137 21 ft 8 kts 36°
2026-04-22 15:56 40.77129 -73.88085 19 ft 10 kts 29°
2026-04-22 15:56 40.77200 -73.88029 21 ft 13 kts 31°
2026-04-22 15:57 40.77283 -73.87960 18 ft 15 kts 30°
2026-04-22 15:57 40.77379 -73.87882 18 ft 17 kts 31°
2026-04-22 15:57 40.77488 -73.87791 19 ft 20 kts 33°
2026-04-22 15:57 40.77610 -73.87690 19 ft 22 kts 33°
2026-04-22 15:58 40.77657 -73.87652 19 ft 0 kts 31°
2026-04-22 16:05 40.77664 -73.87646 21 ft 4 kts 31°
2026-04-22 16:06 40.77694 -73.87622 19 ft 7 kts 31°
2026-04-22 16:06 40.77747 -73.87575 17 ft 12 kts 37°
2026-04-22 16:06 40.77813 -73.87468 14 ft 18 kts 64°
2026-04-22 16:06 40.77833 -73.87314 12 ft 13 kts 95°
2026-04-22 16:07 40.77805 -73.87193 11 ft 15 kts 112°
2026-04-22 16:07 40.77757 -73.87099 12 ft 12 kts 123°
2026-04-22 16:07 40.77706 -73.86996 10 ft 15 kts 124°
2026-04-22 16:07 40.77653 -73.86880 10 ft 14 kts 122°
2026-04-22 16:08 40.77593 -73.86756 10 ft 18 kts 122°
2026-04-22 16:08 40.77524 -73.86611 10 ft 19 kts 123°
2026-04-22 16:08 40.77442 -73.86462 10 ft 21 kts 129°
2026-04-22 16:08 40.77377 -73.86314 11 ft 18 kts 116°
2026-04-22 16:09 40.77317 -73.86176 11 ft 18 kts 123°
2026-04-22 16:09 40.77247 -73.86031 10 ft 20 kts 122°
2026-04-22 16:09 40.77185 -73.85900 10 ft 14 kts 122°
2026-04-22 16:09 40.77123 -73.85860 9 ft 8 kts 197°
2026-04-22 16:10 40.77070 -73.85908 13 ft 8 kts 218°
2026-04-22 16:10 40.77026 -73.85939 17 ft 9 kts 182°
2026-04-22 16:10 40.76977 -73.85933 17 ft 11 kts 185°
2026-04-22 16:10 40.76935 -73.85985 17 ft 7 kts 292°
2026-04-22 16:11 40.76952 -73.86015 18 ft 1 kts 311°
2026-04-22 16:11 40.76953 -73.86017 18 ft 0 kts 311°
2026-04-22 16:13 40.76953 -73.86016 17 ft 0 kts 311°